Dewpoint
56 56 56 57 57 56 56 56 56 56 57 56 56 56 56 56 56 56 56 56 55 55 55 56 56 56 56 56 56 57 57 55 53 51 48 40 50 54 65 62 65 65 64 44 56 51 48 46 48 47 51 53 54 64 68 67 68 63 58 56 54 55 55 59 59 59 62 59 59 59 58 57 56 59 60 60 59 59 59 59 61 63 63 63 64 67 68 68
56 56 56 56 56 56 56 56 56 56 56 56 56 55 55 55 55 55 55 56 56 56 56 56 56 55 55 55 56 57 56 54 52 51 48 54 57 61 64 68 68 63 60 36 43 40 41 40 42 46 50 52 58 61 66 65 68 60 58 56 54 57 59 63 63 64 64 59 63 60 59 57 58 58 59 57 57 58 58 59 62 62 63 65 66 67 68 68
56 56 56 56 56 56 56 56 56 56 56 56 56 56 56 55 55 55 55 56 56 56 55 55 55 55 55 56 57 57 56 51 51 46 47 64 61 63 66 69 67 64 39 35 30 36 37 38 40 46 50 48 54 64 65 64 65 64 57 55 56 61 62 64 64 65 66 66 61 58 60 59 59 58 59 57 56 58 58 59 61 62 62 64 65 67 67 68
56 56 56 56 56 56 56 56 56 56 56 56 56 56 56 55 55 55 55 55 55 55 55 55 55 55 56 57 57 56 53 51 39 41 47 66 66 67 66 67 70 66 32 35 32 33 34 40 43 45 46 46 52 64 62 66 63 64 59 56 58 61 61 64 65 65 66 67 63 62 62 58 60 58 57 57 56 56 58 59 60 61 63 64 65 66 67 67
56 56 56 56 56 56 56 56 56 56 56 56 55 55 55 55 55 55 55 55 55 55 55 54 55 55 56 57 57 56 51 36 37 44 47 72 68 66 68 67 70 47 29 31 27 27 29 32 37 36 41 44 51 62 62 65 66 63 61 63 63 63 61 66 65 66 65 64 62 61 58 58 64 59 57 56 54 54 57 59 61 63 64 64 65 66 66 66
56 56 56 56 56 56 56 56 56 56 55 55 55 55 55 55 55 54 54 55 54 54 54 55 55 56 57 57 56 54 38 32 38 36 72 72 69 67 69 70 65 27 26 25 24 24 24 26 31 34 37 38 54 57 61 64 65 58 63 63 64 64 62 66 65 66 65 63 61 60 63 65 62 57 57 57 56 58 61 60 62 63 64 65 65 65 65 66
56 56 56 56 56 56 56 56 56 55 55 55 55 55 55 55 55 55 55 54 54 54 55 55 56 56 57 57 54 50 30 24 40 38 70 73 69 69 69 72 62 31 23 23 23 20 25 26 31 37 41 40 41 56 63 64 63 62 61 63 62 63 63 65 65 67 65 63 63 64 64 61 58 54 57 56 58 60 61 61 62 63 64 65 65 65 65 65
56 56 56 57 56 56 56 56 56 56 56 55 55 55 55 55 55 54 54 54 54 55 55 56 56 57 57 54 48 37 39 29 32 56 74 73 67 68 67 53 43 31 24 21 23 22 29 25 30 39 41 48 59 56 64 62 63 62 61 62 63 64 64 65 66 66 65 65 65 62 60 61 63 59 57 55 59 59 60 61 62 63 63 64 64 64 64 64
56 56 56 56 56 56 56 56 55 55 55 55 55 55 55 55 55 54 54 54 55 55 55 55 56 57 57 54 39 40 36 41 46 67 66 67 65 64 57 53 38 34 27 24 24 28 28 31 31 41 43 47 52 61 62 61 60 63 62 62 62 63 64 65 66 65 65 65 64 60 60 62 63 63 56 56 59 61 60 61 62 62 62 62 63 63 63 63
56 56 56 56 56 56 56 56 56 56 55 55 55 55 55 55 54 54 55 55 55 55 55 56 57 58 55 50 27 36 39 60 62 58 58 64 62 58 50 47 34 27 26 25 26 32 28 33 34 37 42 41 49 61 62 62 61 62 62 63 63 64 64 65 64 64 65 65 65 60 60 60 64 58 51 58 60 59 59 60 61 61 61 62 62 62 63 63
56 56 56 56 56 56 56 56 56 55 55 55 55 55 55 55 55 55 55 55 55 56 56 56 57 57 53 48 15 27 32 54 56 54 49 54 54 51 45 43 33 28 27 30 24 33 35 38 43 42 42 50 63 63 63 62 63 63 62 62 62 63 64 64 64 63 63 63 65 62 60 62 63 57 53 57 59 59 59 59 60 61 61 61 62 62 63 63
56 56 56 56 56 56 56 56 56 56 55 56 55 55 55 55 55 55 55 55 56 56 57 57 57 56 53 42 19 17 30 55 56 51 43 43 45 48 36 40 33 29 28 29 27 29 38 40 39 38 36 56 62 63 62 63 62 62 63 59 61 62 61 63 62 63 65 63 65 64 58 57 58 54 56 57 60 60 59 58 59 60 60 61 61 62 62 62
56 56 56 55 55 56 56 56 56 56 56 55 55 55 55 55 55 55 55 55 55 56 57 58 57 55 50 30 36 35 40 43 51 48 45 36 31 34 32 31 33 29 28 28 29 31 36 38 37 35 37 63 62 61 63 63 62 62 62 60 59 58 59 61 64 64 63 63 66 65 52 54 56 58 58 59 59 59 58 57 58 59 60 60 61 61 62 62
56 56 56 55 55 55 56 56 56 56 55 55 55 55 55 55 55 55 56 56 56 57 57 57 55 55 45 34 35 40 45 45 44 46 45 46 30 28 24 27 28 27 30 29 30 31 34 35 37 36 35 61 62 64 62 61 63 59 60 62 57 56 56 61 63 64 61 64 66 65 53 53 57 57 59 59 59 58 57 57 57 58 59 59 60 60 61 61
56 56 56 55 55 55 55 55 55 55 55 55 55 55 55 54 55 56 56 56 57 57 57 58 55 50 41 37 44 49 61 55 49 45 44 33 28 26 22 23 26 26 27 29 29 34 33 34 33 32 57 64 64 62 61 61 62 60 55 54 55 55 57 60 63 63 60 61 64 64 53 55 56 56 59 59 59 58 57 56 56 57 58 58 59 59 59 60
56 56 56 56 55 55 55 55 55 54 55 54 54 54 54 55 56 56 56 57 58 57 56 55 55 50 42 33 36 58 39 34 31 36 43 35 30 28 25 18 19 23 23 20 22 24 23 25 23 35 63 63 62 59 58 57 57 56 54 54 54 56 57 58 61 64 64 63 63 62 54 56 55 58 59 59 58 58 56 56 56 57 57 57 58 58 58 58
56 56 56 55 55 55 55 55 55 55 55 54 54 54 54 56 55 57 57 57 58 57 56 51 53 56 30 31 39 34 33 36 35 30 38 40 30 26 18 20 19 19 17 16 25 24 27 28 34 61 57 61 60 57 53 50 50 52 53 52 55 56 56 55 61 63 64 62 59 61 58 58 59 58 58 59 58 57 55 56 56 57 56 57 57 57 56 56
56 56 55 55 55 55 55 55 55 55 54 54 53 54 53 57 58 58 58 58 57 55 53 53 53 42 24 28 26 27 32 33 33 31 33 36 31 28 27 25 26 27 31 31 29 20 29 34 46 57 57 58 58 54 49 48 51 52 51 52 54 57 57 57 57 60 62 62 60 60 60 59 60 56 56 57 58 56 55 55 56 56 56 56 56 56 55 56
56 56 55 55 55 55 55 55 55 54 54 54 56 57 56 57 54 54 52 54 43 38 29 37 37 31 26 26 31 33 34 35 35 30 29 30 33 29 35 29 27 26 26 28 29 29 28 38 56 56 55 56 56 53 49 49 53 53 53 53 55 55 55 56 59 63 62 60 59 59 57 58 58 55 55 56 57 55 55 55 56 56 55 55 55 55 55 55
56 55 55 55 55 55 55 55 54 53 53 51 49 53 46 35 34 31 49 49 44 33 30 31 37 35 36 35 33 33 33 35 31 30 29 35 26 26 24 25 26 26 26 26 27 27 26 36 49 54 55 57 57 53 51 53 54 54 55 55 55 54 56 59 60 61 62 61 60 60 60 58 57 56 56 57 57 56 55 54 55 55 54 54 54 54 54 55
55 55 55 55 54 54 54 54 53 53 52 51 49 38 34 34 33 32 34 34 45 44 36 35 38 35 32 35 37 32 32 30 31 30 31 40 25 24 23 21 21 21 23 27 24 25 23 25 29 41 55 57 56 55 54 52 54 54 54 54 53 54 55 59 60 61 62 60 58 61 59 58 58 59 61 62 60 55 54 53 54 54 54 54 54 54 54 54
55 55 55 54 54 54 54 54 53 52 51 48 44 35 35 35 37 35 36 34 35 41 41 38 41 38 40 40 39 35 33 28 21 22 26 29 25 24 23 20 21 20 22 22 26 23 22 21 21 25 34 56 54 54 52 52 53 54 54 54 53 55 59 60 60 60 61 60 57 59 56 57 59 59 62 62 59 58 55 54 53 53 53 53 54 54 54 54
55 55 55 54 54 53 53 53 52 51 49 43 36 38 38 38 42 42 38 34 34 36 39 39 38 39 39 42 42 37 28 24 21 23 27 27 25 25 19 18 20 21 18 22 23 25 23 21 21 21 26 40 45 44 49 44 52 53 54 53 52 56 54 52 59 60 60 58 56 57 56 56 60 62 62 64 64 62 63 61 58 54 53 53 53 54 54 54
55 55 55 54 54 53 53 52 51 51 49 40 38 38 39 41 41 39 36 34 32 35 36 36 37 40 39 32 26 26 22 22 24 24 34 27 25 26 18 18 15 15 16 20 21 19 21 19 19 21 24 31 41 29 32 32 38 52 54 53 53 56 55 54 56 58 59 59 60 57 55 54 57 57 58 61 65 64 63 64 64 64 55 54 54 55 55 54
54 55 55 54 54 53 52 51 46 46 45 44 43 43 43 44 44 40 35 34 33 34 38 17 35 32 36 28 26 21 23 21 25 27 33 25 23 22 23 21 16 15 15 18 19 24 15 17 18 17 19 22 26 25 21 27 30 50 53 53 54 56 55 56 57 57 56 55 57 55 50 51 55 56 56 59 62 62 63 62 61 62 61 57 54 53 54 55
54 55 54 54 54 53 51 40 43 43 41 31 37 40 44 41 42 40 37 30 20 25 16 14 21 17 21 17 24 24 23 21 20 23 34 27 43 24 25 19 18 16 15 15 12 14 13 17 18 17 15 15 17 17 16 24 32 44 48 53 56 56 56 56 56 55 52 51 55 58 48 46 54 54 56 58 60 60 62 62 61 62 61 59 55 54 54 54
54 54 54 53 53 51 32 26 40 43 29 28 38 42 41 41 47 37 32 25 16 19 15 12 17 17 22 18 24 27 22 24 28 32 33 48 27 36 21 21 21 23 17 18 19 11 15 14 15 16 15 13 12 13 13 26 40 42 48 55 57 57 56 56 55 53 53 57 56 56 53 47 47 53 55 56 58 58 59 61 61 61 61 60 56 55 54 54
54 54 53 53 52 50 41 46 43 36 31 30 44 42 42 45 42 37 28 18 14 18 15 16 19 27 21 21 25 22 26 27 21 25 30 33 27 24 24 22 19 19 18 20 16 18 15 18 13 14 15 11 10 12 14 33 32 42 43 57 57 57 56 56 55 53 53 52 50 54 56 48 48 52 56 56 55 56 57 58 60 61 61 60 59 57 54 54
54 53 53 52 52 49 51 50 44 38 39 44 44 42 42 45 36 32 25 13 16 18 22 17 20 18 19 20 21 21 20 26 22 23 26 27 25 24 24 23 21 20 20 18 16 18 20 18 17 13 12 10 11 9 23 34 27 57 58 57 57 55 54 54 54 53 51 50 48 52 54 48 46 52 55 56 54 54 55 56 58 60 61 61 60 59 56 54
53 53 52 52 49 50 51 51 45 43 48 46 43 43 45 39 32 29 16 10 17 10 17 18 19 15 20 18 18 19 18 19 26 25 23 26 22 21 22 23 20 20 18 23 21 18 18 41 33 13 10 11 12 27 25 38 51 56 54 52 51 52 54 54 53 51 49 46 47 53 54 50 44 50 54 54 53 53 54 55 58 60 61 61 60 60 58 55
52 52 52 51 46 48 49 31 33 46 48 46 43 41 38 36 34 23 13 8 23 11 13 12 15 18 16 16 15 17 21 22 23 23 20 19 18 20 21 18 24 22 25 24 19 20 18 20 34 32 28 20 32 41 50 57 56 54 53 50 50 50 52 49 47 49 41 39 42 51 53 53 45 47 53 55 54 54 53 54 56 58 60 60 61 61 60 55
51 51 51 49 49 52 39 25 32 44 45 45 44 38 35 28 15 14 14 23 8 8 8 7 13 20 18 18 16 17 17 22 27 20 18 17 19 19 23 18 27 18 22 22 17 19 17 17 17 20 49 21 40 46 55 55 53 53 52 50 47 42 45 41 41 40 39 39 47 51 54 51 49 48 53 54 55 55 55 54 54 55 58 60 60 61 62 56
51 50 50 51 52 49 50 45 49 47 45 49 40 36 27 20 8 14 20 14 9 12 6 13 11 17 18 15 15 17 20 16 19 22 19 19 18 17 19 18 23 18 17 26 20 16 16 17 16 19 24 37 43 47 50 51 51 51 49 46 43 38 34 32 35 38 37 40 48 51 54 49 50 50 51 52 53 54 55 55 54 54 56 58 60 61 62 57
50 50 47 50 51 50 50 53 50 47 43 48 32 26 21 11 14 51 24 17 5 11 13 10 9 14 16 12 14 18 15 18 18 19 20 20 16 18 21 22 22 19 19 24 15 15 17 13 12 20 21 23 42 46 51 50 51 51 49 45 44 41 38 33 35 36 38 41 50 53 49 45 45 46 52 54 53 53 55 56 56 55 55 58 60 61 61 58
50 49 48 51 51 52 51 50 50 51 41 32 29 26 17 14 22 21 16 10 8 11 9 13 13 12 12 14 16 19 18 18 21 22 21 17 16 21 21 18 22 21 23 17 27 27 16 16 16 21 24 24 32 39 51 51 49 40 37 44 42 40 42 37 39 40 45 48 47 48 45 46 46 51 58 59 59 58 56 55 55 55 55 57 59 60 61 59
48 49 50 49 52 49 51 51 49 45 36 28 34 27 18 23 15 17 11 9 9 7 4 11 12 13 14 15 18 14 17 17 16 20 19 19 19 19 20 21 19 21 18 18 26 21 27 19 19 22 25 21 22 35 37 50 45 39 43 42 42 45 40 42 45 44 47 43 44 47 48 49 50 49 54 58 58 58 58 56 55 56 55 56 58 59 60 60
48 51 42 45 47 52 51 49 47 41 36 30 27 21 28 32 24 13 44 14 11 8 12 12 13 15 15 14 15 15 14 14 15 19 20 23 17 19 20 18 22 24 21 18 19 21 20 18 21 21 19 21 24 29 42 25 37 37 40 42 33 32 35 35 37 34 35 36 36 46 45 45 44 40 55 58 59 58 58 58 56 57 57 56 57 59 60 60
49 51 55 53 50 50 50 48 42 35 35 32 27 37 37 26 30 24 18 13 10 10 9 13 12 18 18 16 14 15 14 13 14 21 19 22 18 20 20 17 19 23 24 23 21 24 21 19 19 22 21 21 20 22 22 21 21 42 42 42 23 29 32 27 39 31 31 31 31 38 42 44 45 48 56 57 58 59 59 58 58 57 57 57 57 58 59 60
50 35 31 35 44 48 47 48 39 39 32 25 29 25 43 32 35 25 21 15 12 12 11 11 15 19 17 15 16 16 16 14 16 24 21 21 22 25 18 18 17 20 22 23 20 29 26 20 21 23 23 22 21 22 28 21 22 15 15 14 21 24 27 27 31 35 33 31 31 26 37 39 53 55 58 58 59 60 60 58 58 58 58 58 58 58 59 60
39 28 30 37 45 49 49 45 37 31 27 22 27 30 29 22 23 27 23 14 10 12 14 13 16 18 20 17 16 15 17 17 18 22 22 21 21 24 22 20 24 18 21 23 22 26 25 26 21 21 24 23 25 23 23 24 23 15 11 11 13 21 24 21 26 24 27 29 30 29 28 40 52 58 59 59 60 61 61 60 58 59 59 59 58 58 59 60
46 31 30 34 48 49 37 31 31 31 29 29 33 27 26 21 22 21 16 18 12 13 11 14 16 17 17 16 15 18 19 20 19 17 18 17 20 19 22 18 20 18 21 18 23 25 27 27 25 26 21 22 24 25 21 19 21 18 12 12 11 12 15 14 17 19 34 28 27 26 26 40 54 58 59 60 62 62 62 60 59 60 60 62 62 61 60 61
29 26 27 34 45 42 32 29 28 32 23 26 21 25 23 43 22 18 11 14 11 6 14 15 18 19 19 20 17 20 22 22 20 19 18 15 17 17 16 19 20 21 17 22 20 23 28 33 29 27 23 23 24 23 28 29 22 20 35 41 24 16 16 18 12 14 27 35 37 34 38 46 57 59 60 62 62 63 63 62 61 61 61 62 64 64 64 63
29 24 32 40 43 36 29 29 45 36 25 24 27 22 26 22 21 13 12 12 8 10 13 13 16 20 19 19 21 24 21 18 18 19 18 19 17 18 19 20 21 20 27 27 29 29 59 31 27 29 33 34 28 29 30 30 29 33 32 42 45 44 17 12 17 21 23 33 36 36 36 41 56 59 60 61 62 63 63 63 62 62 62 62 64 65 65 65
35 36 40 43 42 32 29 27 28 25 32 37 31 22 22 21 14 11 11 12 9 9 10 13 13 24 23 24 24 25 25 19 18 19 20 22 20 22 25 22 25 30 23 28 28 31 31 35 30 28 29 29 26 28 27 28 28 29 29 43 46 47 40 23 27 29 23 26 36 30 27 43 56 58 60 60 61 62 63 63 63 62 63 63 63 64 65 65
43 44 45 47 51 30 28 26 25 26 29 28 23 22 21 14 16 12 11 10 13 9 15 14 15 17 25 27 29 29 27 18 21 20 19 26 21 27 22 23 33 47 48 29 53 36 33 37 32 26 25 22 22 23 25 26 26 31 39 48 50 50 45 23 16 27 14 41 45 41 44 51 58 57 58 59 61 62 63 63 63 63 63 64 64 65 65 65
35 29 37 46 47 42 42 37 39 39 36 37 32 28 16 9 8 12 12 10 10 15 16 16 22 23 24 26 27 27 27 28 21 24 28 23 25 23 24 24 38 52 58 54 51 44 38 41 36 33 31 31 30 31 33 37 40 45 46 48 49 51 49 34 27 23 16 44 48 49 52 52 54 56 57 58 60 61 62 62 62 63 63 64 64 64 64 65
44 41 43 42 45 41 41 42 44 43 39 36 27 24 16 13 11 12 14 10 12 16 22 22 25 23 23 25 28 27 31 28 31 27 28 26 26 24 27 27 23 45 54 44 49 38 40 38 41 37 36 36 35 35 42 46 45 46 46 47 49 51 50 47 33 28 35 41 40 51 53 52 54 56 57 58 59 61 62 61 61 62 63 63 63 64 65 64
39 41 48 48 37 34 38 37 46 46 44 33 28 25 17 15 15 17 13 13 17 19 19 18 17 25 26 24 28 26 32 29 31 27 33 29 31 24 20 22 23 35 42 24 39 34 35 34 37 40 35 37 39 41 44 45 46 46 47 48 49 51 52 50 49 48 45 35 41 52 54 53 54 56 58 59 60 61 62 61 62 62 63 63 63 63 64 64
47 48 48 51 44 46 41 43 50 47 35 31 32 29 22 14 13 15 13 13 16 18 19 21 18 21 29 32 29 29 34 24 24 30 30 29 27 28 23 23 21 26 24 25 28 38 33 33 36 42 39 38 38 43 45 45 44 43 43 46 49 50 52 52 52 53 53 53 54 54 54 54 56 57 58 60 62 62 62 63 62 62 62 62 62 62 63 64
45 47 46 51 50 49 50 48 45 38 33 41 35 37 29 19 11 7 8 13 18 16 20 18 20 27 33 37 36 27 29 28 23 23 27 27 23 29 25 26 22 25 25 24 26 28 30 32 38 36 42 39 40 45 43 41 42 42 42 43 47 50 51 52 52 53 54 54 54 54 53 53 56 58 59 62 62 62 61 61 61 62 62 62 62 62 62 63
45 50 51 47 44 44 50 45 42 37 32 36 39 39 41 33 19 17 12 12 14 21 19 21 24 30 32 27 28 24 28 31 28 22 32 20 19 23 23 25 24 24 25 26 27 32 30 28 34 36 32 34 38 42 40 38 39 40 40 41 43 49 50 52 52 53 51 52 52 52 51 52 56 58 61 60 60 59 59 59 60 61 62 62 62 62 63 63
47 49 51 48 43 49 44 45 43 35 33 35 41 42 39 37 35 33 23 21 17 20 17 22 27 27 30 28 28 25 25 33 32 24 26 22 17 24 28 23 23 24 26 26 33 28 31 28 27 29 28 29 35 42 38 39 28 30 38 40 41 49 52 53 54 55 54 52 48 47 51 56 57 59 58 57 57 58 57 58 58 59 61 61 61 61 62 63